GW5575 Weather Reports


Display with metric or nautical units.
time (UTC)temp
F
wind
direction
speed
MPH
gust
MPH
rain 1hr
in
rain 24hr
in
rain mn
in
humidity
%
barometer
mb
20260508033307 28 268 22.0 23.0 0.00 0.00 0.00 84 1022.7
20260508032804 28 278 24.0 26.0 0.00 0.00 0.00 83 1022.9
20260508032305 28 262 30.0 34.0 0.00 0.00 0.00 82 1022.7
20260508031758 28 262 32.0 34.0 0.00 0.00 0.00 82 1022.6
20260508031255 28 271 28.0 31.0 0.00 0.00 0.00 82 1022.6
20260508030751 28 268 26.0 30.0 0.00 0.00 0.00 82 1022.5
20260508030248 28 251 25.0 26.0 0.00 0.00 0.00 83 1022.9
20260508025745 29 273 24.0 26.0 0.00 0.00 0.00 83 1022.7
20260508025242 29 295 22.0 23.0 0.00 0.00 0.00 81 1022.5
20260508024738 29 270 28.0 31.0 0.00 0.00 0.00 82 1022.7
20260508024235 29 268 26.0 26.0 0.00 0.00 0.00 82 1022.5
20260508023732 29 271 26.0 30.0 0.00 0.00 0.00 82 1022.6
20260508023229 29 275 25.0 27.0 0.00 0.00 0.00 82 1022.6
20260508022725 29 255 19.0 25.0 0.00 0.00 0.00 82 1022.6
20260508022222 29 272 21.0 23.0 0.00 0.00 0.00 80 1022.7
20260508021718 29 273 25.0 27.0 0.00 0.00 0.00 81 1022.6
20260508021214 29 278 23.0 25.0 0.00 0.00 0.00 80 1022.3
20260508020712 29 273 24.0 25.0 0.00 0.00 0.00 80 1022.3
20260508020209 29 276 26.0 29.0 0.00 0.00 0.00 80 1022.5
20260508015706 29 271 22.0 24.0 0.00 0.00 0.00 79 1022.6
20260508015203 29 273 32.0 33.0 0.00 0.00 0.00 80 1022.5
20260508014659 29 277 38.0 42.0 0.00 0.00 0.00 79 1022.0
20260508014155 30 257 28.0 32.0 0.00 0.00 0.00 78 1022.2
20260508013652 29 271 23.0 24.0 0.00 0.00 0.00 79 1022.3
20260508013148 30 242 29.0 32.0 0.00 0.00 0.00 77 1022.0
20260508012646 30 247 27.0 31.0 0.00 0.00 0.00 77 1022.0
20260508012143 30 313 27.0 30.0 0.00 0.00 0.00 78 1022.0
20260508011641 30 280 38.0 40.0 0.00 0.00 0.00 78 1021.7
20260508011138 30 274 28.0 31.0 0.00 0.00 0.00 79 1022.0
20260508010635 30 271 24.0 26.0 0.00 0.00 0.00 80 1022.0
20260508010133 30 279 30.0 32.0 0.00 0.00 0.00 77 1022.0
20260508005630 30 283 19.0 20.0 0.00 0.00 0.00 79 1021.9
20260508005126 30 45 25.0 26.0 0.00 0.00 0.00 77 1021.9
20260508004622 30 183 29.0 31.0 0.00 0.00 0.00 77 1021.9
20260508004119 30 270 24.0 25.0 0.00 0.00 0.00 78 1021.9
20260508003615 30 259 25.0 27.0 0.00 0.00 0.00 77 1021.6
20260508003113 30 271 21.0 23.0 0.00 0.00 0.00 77 1021.7
20260508002609 30 275 29.0 31.0 0.00 0.00 0.00 76 1021.6
20260508002107 30 274 27.0 29.0 0.00 0.00 0.00 76 1021.7
20260508001602 30 272 30.0 32.0 0.00 0.00 0.00 77 1021.4
20260508001058 30 268 30.0 32.0 0.00 0.00 0.00 76 1022.0
20260508000554 31 288 40.0 47.0 0.00 0.00 0.00 73 1021.6
20260508000052 31 263 31.0 32.0 0.00 0.00 0.00 74 1021.7
20260507235548 31 253 24.0 25.0 0.00 0.00 0.00 76 1021.9
20260507235046 31 138 23.0 25.0 0.00 0.00 0.00 74 1021.9
20260507234542 31 273 29.0 30.0 0.00 0.00 0.00 77 1021.7
20260507234039 30 282 24.0 29.0 0.00 0.00 0.00 78 1021.7
20260507233536 30 250 24.0 26.0 0.00 0.00 0.00 80 1021.9
20260507233035 30 264 22.0 24.0 0.00 0.00 0.00 80 1022.0
20260507232530 30 272 26.0 29.0 0.00 0.00 0.00 82 1022.0
20260507232027 30 275 25.0 27.0 0.00 0.00 0.00 82 1021.7
20260507231524 30 272 27.0 31.0 0.00 0.00 0.00 81 1022.0
20260507231022 30 264 26.0 27.0 0.00 0.00 0.00 81 1021.9
20260507230518 29 286 24.0 26.0 0.00 0.00 0.00 82 1021.9
20260507230015 29 96 26.0 27.0 0.00 0.00 0.00 81 1021.9
20260507225510 29 272 27.0 31.0 0.00 0.00 0.00 84 1022.0
20260507225007 29 283 28.0 31.0 0.00 0.00 0.00 82 1022.0
20260507224502 29 272 26.0 26.0 0.00 0.00 0.00 81 1022.0
20260507223959 29 267 31.0 33.0 0.00 0.00 0.00 81 1022.0
20260507223454 29 164 25.0 26.0 0.00 0.00 0.00 82 1022.2
20260507222952 29 270 22.0 25.0 0.00 0.00 0.00 80 1022.5
20260507222449 29 275 29.0 33.0 0.00 0.00 0.00 82 1022.2
20260507221945 29 265 26.0 27.0 0.00 0.00 0.00 82 1022.5
20260507221442 29 278 26.0 27.0 0.00 0.00 0.00 81 1022.3
20260507220938 29 141 22.0 24.0 0.00 0.00 0.00 80 1022.3
20260507220436 29 267 28.0 31.0 0.00 0.00 0.00 82 1022.5
20260507215933 29 281 28.0 31.0 0.00 0.00 0.00 81 1022.3
20260507215429 29 269 28.0 30.0 0.00 0.00 0.00 82 1022.3
20260507214926 29 280 29.0 32.0 0.00 0.00 0.00 81 1022.6
20260507214424 30 280 36.0 39.0 0.00 0.00 0.00 80 1022.5
20260507213919 30 263 29.0 34.0 0.00 0.00 0.00 79 1022.7
20260507213416 29 265 36.0 38.0 0.00 0.00 0.00 79 1022.7
20260507212913 30 280 35.0 37.0 0.00 0.00 0.00 77 1022.3
20260507212409 30 276 33.0 35.0 0.00 0.00 0.00 77 1022.3
20260507211906 30 260 28.0 31.0 0.00 0.00 0.00 78 1022.5
20260507211402 29 270 31.0 34.0 0.00 0.00 0.00 78 1022.0
20260507210859 29 265 31.0 34.0 0.00 0.00 0.00 78 1022.3
20260507210356 30 275 26.0 29.0 0.00 0.00 0.00 78 1022.7
20260507205853 30 254 23.0 25.0 0.00 0.00 0.00 75 1022.5
20260507205350 29 268 32.0 37.0 0.00 0.00 0.00 78 1022.9
20260507204846 29 268 23.0 24.0 0.00 0.00 0.00 76 1022.7
20260507204343 29 264 17.0 20.0 0.00 0.00 0.00 78 1023.0
20260507203841 29 282 25.0 30.0 0.00 0.00 0.00 78 1022.9
20260507203339 29 272 30.0 33.0 0.00 0.00 0.00 78 1022.6
20260507202834 29 285 25.0 30.0 0.00 0.00 0.00 77 1023.3
20260507202331 29 278 25.0 27.0 0.00 0.00 0.00 78 1022.7
20260507201827 28 279 23.0 25.0 0.00 0.00 0.00 78 1023.0
20260507201322 29 280 30.0 32.0 0.00 0.00 0.00 81 1022.7
20260507200819 28 277 29.0 32.0 0.00 0.00 0.00 79 1022.7
20260507200315 28 267 27.0 30.0 0.00 0.00 0.00 82 1023.0
20260507195811 28 257 28.0 31.0 0.00 0.00 0.00 82 1022.6
20260507195309 28 272 28.0 30.0 0.00 0.00 0.00 81 1022.9
20260507194806 28 266 32.0 35.0 0.00 0.00 0.00 81 1022.6
20260507194302 28 278 30.0 32.0 0.00 0.00 0.00 81 1022.7
20260507193758 28 270 27.0 29.0 0.00 0.00 0.00 82 1022.9
20260507193255 27 273 32.0 37.0 0.00 0.00 0.00 82 1022.7
20260507192751 27 262 36.0 38.0 0.00 0.00 0.00 82 1022.5
20260507192248 27 270 32.0 35.0 0.00 0.00 0.00 82 1022.6
20260507191744 27 272 32.0 34.0 0.00 0.00 0.00 83 1022.9
20260507191241 27 272 34.0 37.0 0.00 0.00 0.00 84 1022.5
20260507190738 27 272 36.0 38.0 0.00 0.00 0.00 83 1022.5
20260507190237 27 265 34.0 35.0 0.00 0.00 0.00 82 1022.9
20260507185735 27 266 37.0 38.0 0.00 0.00 0.00 82 1022.7
20260507185231 27 274 37.0 40.0 0.00 0.00 0.00 83 1022.7
20260507184729 26 267 31.0 33.0 0.00 0.00 0.00 83 1022.9
20260507184227 27 274 34.0 38.0 0.00 0.00 0.00 84 1022.9
20260507183723 26 288 36.0 38.0 0.00 0.00 0.00 84 1022.7
20260507183220 26 273 31.0 32.0 0.00 0.00 0.00 85 1022.9
20260507182717 26 276 29.0 32.0 0.00 0.00 0.00 85 1023.2
20260507182212 26 273 25.0 25.0 0.00 0.00 0.00 84 1023.0
20260507181709 26 275 34.0 39.0 0.00 0.00 0.00 86 1023.0
20260507181206 26 261 26.0 29.0 0.00 0.00 0.00 86 1022.9
20260507180702 25 260 31.0 34.0 0.00 0.00 0.00 85 1022.9
20260507180159 26 276 23.0 24.0 0.00 0.00 0.00 88 1023.0
20260507175655 26 272 25.0 27.0 0.00 0.00 0.00 88 1023.2
20260507175152 26 262 29.0 31.0 0.00 0.00 0.00 87 1022.9
20260507174650 26 282 24.0 25.0 0.00 0.00 0.00 86 1023.2
20260507174148 26 274 25.0 27.0 0.00 0.00 0.00 87 1022.6
20260507173645 26 266 30.0 33.0 0.00 0.00 0.00 85 1022.9
20260507173141 26 272 24.0 27.0 0.00 0.00 0.00 87 1023.0
20260507172638 25 271 23.0 26.0 0.00 0.00 0.00 88 1023.3
20260507172135 25 272 20.0 24.0 0.00 0.00 0.00 87 1023.3
20260507171635 25 223 20.0 23.0 0.00 0.00 0.00 89 1023.3
20260507171133 24 273 24.0 26.0 0.00 0.00 0.00 89 1023.5
20260507170630 24 273 19.0 21.0 0.00 0.00 0.00 89 1023.5
20260507170127 24 270 18.0 20.0 0.00 0.00 0.00 89 1023.8
20260507165622 24 255 19.0 20.0 0.00 0.00 0.00 88 1023.5
20260507165119 24 258 14.0 15.0 0.00 0.00 0.00 89 1023.5
20260507164615 24 274 11.0 11.0 0.00 0.00 0.00 88 1023.5
20260507164112 23 266 15.0 17.0 0.00 0.00 0.00 89 1023.6
20260507163609 23 234 13.0 14.0 0.00 0.00 0.00 88 1023.9
20260507163107 23 240 15.0 17.0 0.00 0.00 0.00 88 1023.6
20260507162602 24 256 12.0 14.0 0.00 0.00 0.00 87 1023.5
20260507162059 23 270 13.0 16.0 0.00 0.00 0.00 87 1023.5
20260507161555 23 282 17.0 20.0 0.00 0.00 0.00 88 1023.8
20260507161052 23 271 15.0 17.0 0.00 0.00 0.00 88 1023.8
20260507160548 22 247 14.0 15.0 0.00 0.00 0.00 89 1023.6
20260507160044 22 256 12.0 13.0 0.00 0.00 0.00 89 1023.5
20260507155540 22 222 16.0 16.0 0.00 0.00 0.00 89 1023.6
20260507155037 22 242 20.0 22.0 0.00 0.00 0.00 90 1023.6
20260507154534 21 249 17.0 18.0 0.00 0.00 0.00 90 1023.9
20260507154031 21 225 15.0 17.0 0.00 0.00 0.00 91 1023.8
20260507153528 21 250 16.0 18.0 0.00 0.00 0.00 91 1023.6
20260507153024 20 256 19.0 21.0 0.00 0.00 0.00 91 1023.9
20260507152520 20 256 18.0 21.0 0.00 0.00 0.00 91 1024.1
20260507152017 20 258 15.0 17.0 0.00 0.00 0.00 91 1024.1
20260507151513 20 252 16.0 17.0 0.00 0.00 0.00 91 1024.2
20260507151010 19 253 13.0 14.0 0.00 0.00 0.00 91 1023.8
20260507150507 19 268 13.0 15.0 0.00 0.00 0.00 91 1024.2
20260507150004 19 287 13.0 14.0 0.00 0.00 0.00 91 1024.3
20260507145458 19 279 12.0 13.0 0.00 0.00 0.00 91 1023.9
20260507144956 19 283 11.0 13.0 0.00 0.00 0.00 90 1024.2
20260507144452 19 272 9.0 10.0 0.00 0.00 0.00 90 1023.9
20260507143949 20 282 8.0 9.0 0.00 0.00 0.00 88 1023.9
20260507143447 20 282 6.0 7.0 0.00 0.00 0.00 89 1024.2
20260507142944 19 282 5.0 6.0 0.00 0.00 0.00 90 1023.9
20260507142439 19 335 5.0 6.0 0.00 0.00 0.00 90 1024.1
20260507141937 19 280 7.0 7.0 0.00 0.00 0.00 89 1024.1
20260507141432 18 283 5.0 6.0 0.00 0.00 0.00 89 1024.1
20260507140930 18 279 5.0 6.0 0.00 0.00 0.00 89 1024.2
20260507140426 18 279 5.0 6.0 0.00 0.00 0.00 90 1023.9
20260507135924 18 295 6.0 7.0 0.00 0.00 0.00 89 1023.9
20260507135420 18 274 6.0 7.0 0.00 0.00 0.00 89 1023.9
20260507134918 17 280 6.0 7.0 0.00 0.00 0.00 89 1024.1
20260507134414 17 328 6.0 6.0 0.00 0.00 0.00 89 1023.9
20260507133910 17 275 5.0 6.0 0.00 0.00 0.00 90 1023.9
20260507133406 17 303 6.0 6.0 0.00 0.00 0.00 89 1023.6
20260507132905 18 303 9.0 10.0 0.00 0.00 0.00 91 1023.9
20260507132401 17 331 9.0 10.0 0.00 0.00 0.00 90 1023.8
20260507131858 17 291 7.0 8.0 0.00 0.00 0.00 90 1023.6
20260507131355 17 260 7.0 7.0 0.00 0.00 0.00 91 1023.5
20260507130852 18 347 11.0 11.0 0.00 0.00 0.00 92 1023.3
20260507130348 17 1 8.0 8.0 0.00 0.00 0.00 91 1023.3
20260507125848 17 338 5.0 6.0 0.00 0.00 0.00 90 1023.6
20260507125344 16 309 6.0 7.0 0.00 0.00 0.00 90 1023.5
20260507124842 17 309 7.0 8.0 0.00 0.00 0.00 91 1023.2
20260507124338 17 311 7.0 8.0 0.00 0.00 0.00 90 1023.3
20260507123837 17 284 6.0 7.0 0.00 0.00 0.00 91 1023.3
20260507123334 17 314 7.0 7.0 0.00 0.00 0.00 91 1023.2
20260507122830 16 268 4.0 5.0 0.00 0.00 0.00 90 1023.2
20260507122325 16 267 7.0 7.0 0.00 0.00 0.00 89 1023.2
20260507121823 16 267 8.0 8.0 0.00 0.00 0.00 91 1023.0
20260507121317 17 283 9.0 9.0 0.00 0.00 0.00 92 1023.3
20260507120814 16 265 7.0 8.0 0.00 0.00 0.00 92 1023.2
20260507120310 17 266 10.0 10.0 0.00 0.00 0.00 92 1022.9
20260507115807 17 329 11.0 13.0 0.00 0.00 0.00 92 1023.0
20260507115306 16 341 10.0 10.0 0.00 0.00 0.00 92 1023.0
20260507114758 17 324 9.0 10.0 0.00 0.00 0.00 93 1023.2
20260507114256 16 326 13.0 15.0 0.00 0.00 0.00 93 1023.2
20260507113753 17 333 14.0 15.0 0.00 0.00 0.00 94 1022.9
20260507113250 17 331 13.0 15.0 0.00 0.00 0.00 94 1022.5
20260507112748 16 331 11.0 11.0 0.00 0.00 0.00 94 1022.9
20260507112244 16 357 12.0 14.0 0.00 0.00 0.00 94 1022.6
20260507111742 17 351 10.0 13.0 0.00 0.00 0.00 94 1022.7
20260507111238 16 335 12.0 14.0 0.00 0.00 0.00 94 1022.5
20260507110734 17 328 12.0 13.0 0.00 0.00 0.00 94 1022.6
20260507110231 16 330 10.0 11.0 0.00 0.00 0.00 94 1022.6
20260507105728 16 341 11.0 11.0 0.00 0.00 0.00 94 1022.5
20260507105224 17 332 13.0 14.0 0.00 0.00 0.00 94 1022.6
20260507104722 17 331 13.0 15.0 0.00 0.00 0.00 94 1022.6
20260507104218 17 329 15.0 16.0 0.00 0.00 0.00 94 1022.2
20260507103714 17 334 14.0 15.0 0.00 0.00 0.00 94 1022.5
20260507103210 17 338 18.0 18.0 0.00 0.00 0.00 94 1022.5
20260507102707 17 332 14.0 14.0 0.00 0.00 0.00 94 1022.7
20260507102204 17 326 15.0 16.0 0.00 0.00 0.00 94 1022.5
20260507101700 17 330 18.0 20.0 0.00 0.00 0.00 94 1022.7
20260507101155 17 50 17.0 18.0 0.00 0.00 0.00 94 1022.6
20260507100653 17 68 17.0 17.0 0.00 0.00 0.00 94 1022.7
20260507100151 17 337 13.0 15.0 0.00 0.00 0.00 94 1022.7
20260507095649 17 339 14.0 15.0 0.00 0.00 0.00 94 1022.9
20260507095145 17 334 17.0 18.0 0.00 0.00 0.00 94 1022.9
20260507094642 17 333 17.0 18.0 0.00 0.00 0.00 94 1022.7
20260507094138 17 339 19.0 20.0 0.00 0.00 0.00 94 1022.6
20260507093636 17 336 20.0 22.0 0.00 0.00 0.00 94 1022.5
20260507093134 17 339 19.0 21.0 0.00 0.00 0.00 94 1022.6
20260507092631 17 343 15.0 17.0 0.00 0.00 0.00 94 1022.9
20260507092127 17 333 16.0 18.0 0.00 0.00 0.00 94 1022.6
20260507091624 17 352 21.0 22.0 0.00 0.00 0.00 94 1022.7
20260507091120 17 338 19.0 20.0 0.00 0.00 0.00 94 1022.7
20260507090616 17 331 20.0 21.0 0.00 0.00 0.00 94 1022.9
20260507090113 16 337 22.0 23.0 0.00 0.00 0.00 94 1022.7
20260507085610 17 333 17.0 18.0 0.00 0.00 0.00 94 1022.9
20260507085107 17 325 15.0 17.0 0.00 0.00 0.00 94 1022.9
20260507084603 16 336 14.0 15.0 0.00 0.00 0.00 93 1022.7
20260507084100 16 335 18.0 20.0 0.00 0.00 0.00 94 1022.6
20260507083556 16 328 15.0 16.0 0.00 0.00 0.00 93 1022.9
20260507083054 15 335 17.0 18.0 0.00 0.00 0.00 93 1022.7
20260507082549 16 328 17.0 18.0 0.00 0.00 0.00 93 1023.0
20260507082046 15 329 16.0 17.0 0.00 0.00 0.00 93 1022.7
20260507081542 15 327 19.0 21.0 0.00 0.00 0.00 93 1022.9
20260507081040 15 328 19.0 20.0 0.00 0.00 0.00 92 1022.6
20260507080535 15 327 21.0 23.0 0.00 0.00 0.00 92 1022.9
20260507080032 14 131 17.0 18.0 0.00 0.00 0.00 92 1022.7
20260507075527 14 312 19.0 20.0 0.00 0.00 0.00 92 1022.7
20260507075024 14 300 15.0 16.0 0.00 0.00 0.00 92 1022.7
20260507074521 14 348 18.0 18.0 0.00 0.00 0.00 92 1022.9
20260507074020 13 339 21.0 23.0 0.00 0.00 0.00 93 1022.6
20260507073515 13 306 19.0 21.0 0.00 0.00 0.00 93 1022.6
20260507073012 13 319 17.0 18.0 0.00 0.00 0.00 93 1022.6
20260507072509 13 338 18.0 20.0 0.00 0.00 0.00 93 1022.6
20260507072006 12 329 21.0 23.0 0.00 0.00 0.00 93 1022.6
20260507071504 12 310 16.0 16.0 0.00 0.00 0.00 93 1022.7
20260507071000 12 303 19.0 20.0 0.00 0.00 0.00 93 1022.5
20260507070457 12 122 18.0 20.0 0.00 0.00 0.00 93 1022.6
20260507065954 12 270 17.0 18.0 0.00 0.00 0.00 93 1022.7
20260507065451 12 306 15.0 16.0 0.00 0.00 0.00 93 1022.6
20260507064948 12 306 16.0 16.0 0.00 0.00 0.00 93 1022.7
20260507064446 12 308 18.0 20.0 0.00 0.00 0.00 93 1022.7
20260507063943 12 145 20.0 22.0 0.00 0.00 0.00 93 1022.9
20260507063440 12 197 19.0 20.0 0.00 0.00 0.00 93 1022.9
20260507062937 12 298 20.0 21.0 0.00 0.00 0.00 93 1023.0
20260507062434 12 306 18.0 18.0 0.00 0.00 0.00 93 1023.3
20260507061932 12 297 20.0 22.0 0.00 0.00 0.00 93 1022.7
20260507061430 12 291 21.0 22.0 0.00 0.00 0.00 93 1022.9
20260507060928 12 326 24.0 24.0 0.00 0.00 0.00 93 1022.6
20260507060424 12 316 24.0 24.0 0.00 0.00 0.00 93 1022.7
20260507055921 12 340 22.0 23.0 0.00 0.00 0.00 93 1022.7
20260507055417 12 292 22.0 23.0 0.00 0.00 0.00 93 1022.6
20260507054914 12 297 22.0 24.0 0.00 0.00 0.00 93 1022.6
20260507054409 12 295 21.0 22.0 0.00 0.00 0.00 93 1022.3
20260507053907 11 319 18.0 20.0 0.00 0.00 0.00 93 1022.5
20260507053405 12 295 18.0 18.0 0.00 0.00 0.00 93 1022.6
20260507052903 12 322 22.0 24.0 0.00 0.00 0.00 93 1022.7
20260507052400 12 52 18.0 20.0 0.00 0.00 0.00 93 1022.9
20260507051857 12 244 18.0 18.0 0.00 0.00 0.00 93 1022.5
20260507051355 12 42 17.0 18.0 0.00 0.00 0.00 93 1022.7
20260507050851 12 329 15.0 16.0 0.00 0.00 0.00 93 1022.7
20260507050348 12 27 16.0 18.0 0.00 0.00 0.00 93 1022.6
20260507045845 12 326 18.0 20.0 0.00 0.00 0.00 94 1022.7
20260507045341 12 80 18.0 18.0 0.00 0.00 0.00 93 1022.7
20260507044839 12 306 17.0 18.0 0.00 0.00 0.00 93 1022.5
20260507044335 12 313 21.0 22.0 0.00 0.00 0.00 93 1022.5
20260507043831 12 339 18.0 20.0 0.00 0.00 0.00 94 1022.0
20260507043328 12 333 22.0 23.0 0.00 0.00 0.00 94 1022.5
20260507042824 12 179 22.0 23.0 0.00 0.00 0.00 94 1022.2
20260507042320 12 308 24.0 25.0 0.00 0.00 0.00 94 1021.9
20260507041817 12 304 27.0 29.0 0.00 0.00 0.00 94 1022.2
20260507041313 12 319 21.0 22.0 0.00 0.00 0.00 94 1021.9
20260507040811 12 337 25.0 26.0 0.00 0.00 0.00 94 1022.0
20260507040307 12 347 27.0 30.0 0.00 0.00 0.00 94 1022.0
20260507035802 12 309 24.0 26.0 0.00 0.00 0.00 94 1022.0
20260507035258 12 328 27.0 29.0 0.00 0.00 0.00 94 1021.6
20260507034756 13 314 26.0 29.0 0.00 0.00 0.00 94 1022.0
20260507034252 12 174 21.0 24.0 0.00 0.00 0.00 94 1021.9
20260507033751 13 309 23.0 24.0 0.00 0.00 0.00 94 1021.9